"Pseudo-MPEC" for X69896

Created 2020 Sep 19 22:07:37 UT using Find_Orb

Click here for an explanation of pseudo-MPECs

 
 Astrometry: 
     X69896   C2020 09 02sZ[Lt+oCg!ZbL6/jfd/IeLxY5%AstrometryuP1GIE\OthD=UEQqD29
     X69896   C2020 09 02LA4[2EuI0G!redacted;C\Z?fFclick@6herek?ejdfor]/4q[V+D29
     X69896   C2020 09 02pB_;=b?c#UDBBD2explanation5?QUc;8=K5`6tWX4LPv,o:0J8,D29

Station data:
(D29) Purple Mountain Observatory, XuYi Station  (N32.734366 E118.463900)
   China.  Observers H. B. Zhao, B. Li, G. Zhaori, R. Q. Hong, L. F. Hu.
   Measurers H. B. Zhao, B. Li. H. Lu, G. Zhaori. 1.04-m f/1.8 Schmidt + CCD.

Orbital elements:  X69896
   Perihelion 2020 Jun 27.666847 +/- 67.8 TT = 16:00:15 (JD 2459028.166847)
Epoch 2020 Sep  3.0 TT = JDT 2459095.5   Earth MOID: 0.3190   Ma: 0.0059
M  26.02638560 +/- 60               (J2000 ecliptic)          AutoNEOCP
n   0.38653151 +/- 0.455            Peri.  127.43744 +/- 110
a   1.86643460 +/- 1.46             Node   175.24983 +/- 6
e   0.3412033 +/- 0.281             Incl.   26.83544 +/- 35
P   2.55/931.34d           H 19.6   G  0.15   U 12.2  SR
q 1.22960089 +/- 0.56    Q 2.50326832 +/- 23.4
From 3 observations 2020 Sept. 2 (29.1 min); mean residual 0".13
Residuals in arcseconds: 
200902 D29  .13+  .04+    200902 D29  .26-  .07-    200902 D29  .13+  .04+    

Ephemerides (geocentric):
Date (UTC) HH   RA              Dec         delta   r     elong  mag " sig PA
---- -- -- --  -------------   -----------  ------ ------ -----  --- ---- ---
2020 09 19 22  01 45 44.861   -05 13 19.53  .46774 1.4307 150.7 19.7  76d   5
2020 09 19 23  01 45 43.998   -05 15 39.81  .46783 1.4308 150.7 19.7  76d   5
2020 09 20 00  01 45 43.130   -05 18 00.03  .46793 1.4310 150.8 19.7  76d   5
2020 09 20 01  01 45 42.258   -05 20 20.18  .46802 1.4312 150.8 19.7  76d   5
2020 09 20 02  01 45 41.382   -05 22 40.26  .46812 1.4313 150.8 19.7  77d   5
2020 09 20 03  01 45 40.500   -05 25 00.28  .46821 1.4315 150.9 19.7  77d   5
2020 09 20 04  01 45 39.615   -05 27 20.22  .46831 1.4317 150.9 19.7  77d   5
2020 09 20 05  01 45 38.725   -05 29 40.10  .46841 1.4319 150.9 19.7  77d   5
2020 09 20 06  01 45 37.830   -05 31 59.91  .46850 1.4320 151.0 19.7  77d   5
2020 09 20 07  01 45 36.931   -05 34 19.66  .46860 1.4322 151.0 19.7  77d   5
2020 09 20 08  01 45 36.028   -05 36 39.33  .46870 1.4324 151.0 19.7  77d   5
2020 09 20 09  01 45 35.120   -05 38 58.93  .46880 1.4325 151.1 19.7  77d   5
2020 09 20 10  01 45 34.208   -05 41 18.47  .46890 1.4327 151.1 19.7  77d   5
2020 09 20 11  01 45 33.291   -05 43 37.93  .46900 1.4329 151.1 19.7  77d   5
2020 09 20 12  01 45 32.370   -05 45 57.33  .46910 1.4331 151.2 19.7  77d   5
2020 09 20 13  01 45 31.444   -05 48 16.65  .46920 1.4332 151.2 19.7  77d   5
2020 09 20 14  01 45 30.514   -05 50 35.90  .46930 1.4334 151.2 19.7  77d   5
2020 09 20 15  01 45 29.580   -05 52 55.09  .46940 1.4336 151.2 19.7  77d   5
2020 09 20 16  01 45 28.641   -05 55 14.20  .46950 1.4337 151.3 19.7  77d   5
2020 09 20 17  01 45 27.698   -05 57 33.23  .46960 1.4339 151.3 19.7  77d   5
2020 09 20 18  01 45 26.751   -05 59 52.20  .46971 1.4341 151.3 19.7  77d   5
2020 09 20 19  01 45 25.799   -06 02 11.09  .46981 1.4343 151.4 19.7  77d   5
2020 09 20 20  01 45 24.843   -06 04 29.91  .46991 1.4344 151.4 19.7  77d   5
2020 09 20 21  01 45 23.882   -06 06 48.65  .47002 1.4346 151.4 19.7  77d   5
2020 09 20 22  01 45 22.917   -06 09 07.32  .47012 1.4348 151.5 19.7  77d   5
2020 09 20 23  01 45 21.948   -06 11 25.92  .47023 1.4349 151.5 19.7  77d   5
2020 09 21 00  01 45 20.975   -06 13 44.44  .47033 1.4351 151.5 19.7  77d   5
2020 09 21 01  01 45 19.997   -06 16 02.89  .47044 1.4353 151.6 19.7  77d   5
2020 09 21 02  01 45 19.015   -06 18 21.26  .47054 1.4355 151.6 19.7  77d   5
2020 09 21 03  01 45 18.029   -06 20 39.56  .47065 1.4356 151.6 19.7  77d   5
2020 09 21 04  01 45 17.038   -06 22 57.78  .47076 1.4358 151.7 19.7  77d   5
2020 09 21 05  01 45 16.043   -06 25 15.93  .47086 1.4360 151.7 19.7  77d   5
2020 09 21 06  01 45 15.044   -06 27 33.99  .47097 1.4361 151.7 19.7  77d   5
2020 09 21 07  01 45 14.041   -06 29 51.99  .47108 1.4363 151.7 19.7  77d   5
2020 09 21 08  01 45 13.033   -06 32 09.90  .47119 1.4365 151.8 19.7  77d   5
2020 09 21 09  01 45 12.021   -06 34 27.73  .47130 1.4367 151.8 19.7  77d   5
2020 09 21 10  01 45 11.005   -06 36 45.49  .47141 1.4368 151.8 19.7  77d   5
2020 09 21 11  01 45 09.985   -06 39 03.17  .47152 1.4370 151.9 19.7  77d   5
2020 09 21 12  01 45 08.960   -06 41 20.77  .47163 1.4372 151.9 19.7  77d   5
2020 09 21 13  01 45 07.932   -06 43 38.30  .47174 1.4373 151.9 19.7  77d   5
2020 09 21 14  01 45 06.899   -06 45 55.74  .47185 1.4375 151.9 19.7  77d   5
2020 09 21 15  01 45 05.862   -06 48 13.10  .47196 1.4377 152.0 19.7  77d   5
2020 09 21 16  01 45 04.821   -06 50 30.38  .47207 1.4379 152.0 19.7  77d   5
2020 09 21 17  01 45 03.775   -06 52 47.59  .47219 1.4380 152.0 19.7  78d   5
2020 09 21 18  01 45 02.726   -06 55 04.71  .47230 1.4382 152.1 19.7  78d   5
2020 09 21 19  01 45 01.672   -06 57 21.75  .47241 1.4384 152.1 19.7  78d   5
2020 09 21 20  01 45 00.614   -06 59 38.71  .47253 1.4385 152.1 19.7  78d   5
2020 09 21 21  01 44 59.552   -07 01 55.59  .47264 1.4387 152.1 19.7  78d   5